This is the latest recevied weather packets stored in our database for station/object WB3IGR. If no packets are shown the sender has not sent any weather packets the latest 10 day(s).
| Time | Temp. | Humidity | Pressure | Rain* | Wind** | Luminosity | Snow |
|---|---|---|---|---|---|---|---|
| 1778227669 | 5.56° C | 93% | 1014.5 hPa | 0 mm | - | 0 W/m² | - |
| 1778227367 | 5.56° C | 94% | 1014.4 hPa | 0 mm | - | 0 W/m² | - |
| 1778227063 | 5.56° C | 93% | 1014.4 hPa | 0 mm | - | 0 W/m² | - |
| 1778226760 | 5.56° C | 93% | 1014.5 hPa | 0 mm | - | 0 W/m² | - |
| 1778226458 | 6.11° C | 92% | 1014.4 hPa | 0 mm | - | 0 W/m² | - |
| 1778226155 | 6.11° C | 91% | 1014.3 hPa | 0 mm | - | 0 W/m² | - |
| 1778225852 | 6.11° C | 91% | 1014.3 hPa | 0 mm | - | 0 W/m² | - |
| 1778225550 | 6.11° C | 90% | 1014.1 hPa | 0 mm | - | 0 W/m² | - |
| 1778225246 | 6.11° C | 90% | 1014.1 hPa | 0 mm | - | 0 W/m² | - |
| 1778224943 | 6.11° C | 89% | 1014.3 hPa | 0 mm | - | 0 W/m² | - |
| 1778224640 | 6.11° C | 90% | 1013.9 hPa | 0 mm | - | 0 W/m² | - |
| 1778224338 | 6.67° C | 90% | 1014.4 hPa | 0 mm | - | 0 W/m² | - |
| 1778224035 | 6.11° C | 90% | 1014 hPa | 0 mm | - | 0 W/m² | - |
| 1778223734 | 6.11° C | 90% | 1014.1 hPa | 0 mm | - | 0 W/m² | - |
| 1778223431 | 6.11° C | 90% | 1014.3 hPa | 0 mm | - | 0 W/m² | - |
| 1778223129 | 6.67° C | 89% | 1014.3 hPa | 0 mm | - | 0 W/m² | - |
| 1778222826 | 6.67° C | 88% | 1014.1 hPa | 0 mm | - | 0 W/m² | - |
| 1778222524 | 6.67° C | 87% | 1014 hPa | 0 mm | - | 0 W/m² | - |
| 1778222222 | 7.22° C | 87% | 1014.4 hPa | 0 mm | - | 0 W/m² | - |
| 1778221919 | 7.22° C | 85% | 1014.1 hPa | 0 mm | - | 0 W/m² | - |
| 1778221616 | 7.22° C | 85% | 1014.1 hPa | 0 mm | - | 0 W/m² | - |
| 1778221313 | 7.78° C | 84% | 1014.1 hPa | 0 mm | - | 0 W/m² | - |
| 1778221010 | 7.78° C | 83% | 1014 hPa | 0 mm | - | 0 W/m² | - |
| 1778220708 | 7.78° C | 82% | 1013.9 hPa | 0 mm | - | 0 W/m² | - |
| 1778220404 | 7.78° C | 82% | 1013.9 hPa | 0 mm | - | 0 W/m² | - |
* Rain latest hour (hover to see other rain measurements)
** Current wind speed in m/s (hover to see current wind gust speed)